User: anonymous   Login
Location: Unspecified
(0.0000°N, 0.0000°E)
Time: 18:59:02
(UTC+00:00)
Language:

Nadezhda 2 - Orbit

View from above orbital plane
View from above orbital plane
View from above satellite
View from above satellite

Ground track
Ground track

The orbit data is extracted from the following two-line orbital elements,

1 20508U 90017A   19340.92200939 +.00000020 +00000-0 +58730-5 0  9993
2 20508 082.9577 035.1080 0042965 245.1300 288.9994 13.74280348492872
Epoch (UTC): 06 December 2019 22:07:41
Eccentricity: 0.0042965
inclination: 82.9577°
perigee height: 952 km
apogee height: 1016 km
right ascension of ascending node: 35.1080°
argument of perigee: 245.1300°
revolutions per day: 13.74280348
mean anomaly at epoch: 288.9994°
orbit number at epoch: 49287

The dashed part of the orbit path shows where the satellite is in the earth's shadow,  

DLR